Time,TemperatureF,DewpointF,PressureIn,WindDirection,WindDirectionDegrees,WindSpeedMPH,WindSpeedGustMPH,Humidity,HourlyPrecipIn,Conditions,Clouds,dailyrainin,SolarRadiationWatts/m^2,SoftwareType,DateUTC
2012-01-21 00:24:00,36.0,35.0,-100.00,SSE,163,7.0,17.0,97,0.11,,,0.85,28.000000,,2012-01-21 00:24:00,
2012-01-21 00:35:00,36.0,35.0,-100.00,SSE,163,7.0,17.0,97,0.11,,,0.85,28.000000,,2012-01-21 00:35:00,
2012-01-21 00:44:00,36.0,35.0,-100.00,SSE,163,7.0,17.0,97,0.11,,,0.85,28.000000,,2012-01-21 00:44:00,
2012-01-21 00:53:00,36.0,35.0,-100.00,SSE,163,7.0,17.0,97,0.11,,,0.85,28.000000,,2012-01-21 00:53:00,
2012-01-21 01:24:00,36.0,35.0,-100.00,South,172,8.0,15.0,98,0.13,,,0.95,9.000000,,2012-01-21 01:24:00,
2012-01-21 01:44:00,36.0,35.0,-100.00,South,172,8.0,15.0,98,0.13,,,0.95,9.000000,,2012-01-21 01:44:00,
2012-01-21 01:53:00,36.0,35.0,-100.00,South,172,8.0,15.0,98,0.13,,,0.95,9.000000,,2012-01-21 01:53:00,
2012-01-21 02:24:00,33.0,32.0,-100.00,South,173,6.0,17.0,98,0.18,,,-99.99,1.000000,,2012-01-21 02:24:00,
2012-01-21 02:35:00,33.0,32.0,-100.00,South,173,6.0,17.0,98,0.18,,,-99.99,1.000000,,2012-01-21 02:35:00,
2012-01-21 02:44:00,33.0,32.0,-100.00,South,173,6.0,17.0,98,0.18,,,-99.99,1.000000,,2012-01-21 02:44:00,
2012-01-21 02:53:00,33.0,32.0,-100.00,South,173,6.0,17.0,98,0.18,,,-99.99,1.000000,,2012-01-21 02:53:00,
2012-01-21 03:23:00,33.0,33.0,-100.00,South,169,8.0,15.0,99,0.01,,,-99.99,1.000000,,2012-01-21 03:23:00,
2012-01-21 03:34:00,33.0,33.0,-100.00,South,169,8.0,15.0,99,0.01,,,-99.99,1.000000,,2012-01-21 03:34:00,
2012-01-21 03:44:00,33.0,33.0,-100.00,South,169,8.0,15.0,99,0.01,,,-99.99,1.000000,,2012-01-21 03:44:00,
2012-01-21 03:53:00,33.0,33.0,-100.00,South,169,8.0,15.0,99,0.01,,,-99.99,1.000000,,2012-01-21 03:53:00,
2012-01-21 04:24:00,33.0,33.0,-100.00,South,183,8.0,19.0,99,0.03,,,1.12,1.000000,,2012-01-21 04:24:00,
2012-01-21 04:35:00,33.0,33.0,-100.00,South,183,8.0,19.0,99,0.03,,,1.12,1.000000,,2012-01-21 04:35:00,
2012-01-21 04:44:00,33.0,33.0,-100.00,South,183,8.0,19.0,99,0.03,,,1.12,1.000000,,2012-01-21 04:44:00,
2012-01-21 04:53:00,33.0,33.0,-100.00,South,183,8.0,19.0,99,0.03,,,1.12,1.000000,,2012-01-21 04:53:00,
2012-01-21 05:24:00,36.0,36.0,-100.00,South,174,8.0,25.0,99,0.07,,,1.17,1.000000,,2012-01-21 05:24:00,
2012-01-21 05:34:00,36.0,36.0,-100.00,South,174,8.0,25.0,99,0.07,,,1.17,1.000000,,2012-01-21 05:34:00,
2012-01-21 05:44:00,36.0,36.0,-100.00,South,174,8.0,25.0,99,0.07,,,1.17,1.000000,,2012-01-21 05:44:00,
2012-01-21 05:53:00,36.0,36.0,-100.00,South,174,8.0,25.0,99,0.07,,,1.17,1.000000,,2012-01-21 05:53:00,
2012-01-21 06:24:00,36.0,35.0,-100.00,South,182,6.0,14.0,97,0.09,,,1.24,1.000000,,2012-01-21 06:24:00,
2012-01-21 06:35:00,36.0,35.0,-100.00,South,182,6.0,14.0,97,0.09,,,1.24,1.000000,,2012-01-21 06:35:00,
2012-01-21 06:44:00,36.0,35.0,-100.00,South,182,6.0,14.0,97,0.09,,,1.24,1.000000,,2012-01-21 06:44:00,
2012-01-21 06:53:00,36.0,35.0,-100.00,South,182,6.0,14.0,97,0.09,,,1.24,1.000000,,2012-01-21 06:53:00,
2012-01-21 08:24:00,36.0,34.0,-100.00,SSE,159,8.0,13.0,94,-99.99,,,1.36,1.000000,,2012-01-21 08:24:00,
2012-01-21 08:35:00,36.0,34.0,-100.00,SSE,159,8.0,13.0,94,-99.99,,,1.36,1.000000,,2012-01-21 08:35:00,
2012-01-21 08:44:00,36.0,34.0,-100.00,SSE,159,8.0,13.0,94,-99.99,,,1.36,1.000000,,2012-01-21 08:44:00,
2012-01-21 08:53:00,36.0,34.0,-100.00,SSE,159,8.0,13.0,94,-99.99,,,1.36,1.000000,,2012-01-21 08:53:00,
2012-01-21 09:24:00,37.0,35.0,-100.00,SSE,166,8.0,15.0,91,0.06,,,-99.99,1.000000,,2012-01-21 09:24:00,
2012-01-21 09:34:00,37.0,35.0,-100.00,SSE,166,8.0,15.0,91,0.06,,,-99.99,1.000000,,2012-01-21 09:34:00,
2012-01-21 09:44:00,37.0,35.0,-100.00,SSE,166,8.0,15.0,91,0.06,,,-99.99,1.000000,,2012-01-21 09:44:00,
2012-01-21 09:53:00,37.0,35.0,-100.00,SSE,166,8.0,15.0,91,0.06,,,-99.99,1.000000,,2012-01-21 09:53:00,
2012-01-21 10:24:00,37.0,35.0,-100.00,South,178,9.0,15.0,91,0.07,,,1.48,1.000000,,2012-01-21 10:24:00,
2012-01-21 10:35:00,37.0,35.0,-100.00,South,178,9.0,15.0,91,0.07,,,1.48,1.000000,,2012-01-21 10:35:00,
2012-01-21 10:44:00,37.0,35.0,-100.00,South,178,9.0,15.0,91,0.07,,,1.48,1.000000,,2012-01-21 10:44:00,
2012-01-21 10:53:00,37.0,35.0,-100.00,South,178,9.0,15.0,91,0.07,,,1.48,1.000000,,2012-01-21 10:53:00,
2012-01-21 11:24:00,35.0,34.0,-100.00,SSW,206,11.0,22.0,95,0.09,,,1.57,1.000000,,2012-01-21 11:24:00,
2012-01-21 11:35:00,35.0,34.0,-100.00,SSW,206,11.0,22.0,95,0.09,,,1.57,1.000000,,2012-01-21 11:35:00,
2012-01-21 11:44:00,35.0,34.0,-100.00,SSW,206,11.0,22.0,95,0.09,,,1.57,1.000000,,2012-01-21 11:44:00,
2012-01-21 11:53:00,35.0,34.0,-100.00,SSW,206,11.0,22.0,95,0.09,,,1.57,1.000000,,2012-01-21 11:53:00,
2012-01-21 12:24:00,34.0,33.0,-100.00,WSW,252,14.0,22.0,95,0.04,,,1.61,1.000000,,2012-01-21 12:24:00,
2012-01-21 12:35:00,34.0,33.0,-100.00,WSW,252,14.0,22.0,95,0.04,,,1.61,1.000000,,2012-01-21 12:35:00,
2012-01-21 12:44:00,34.0,33.0,-100.00,WSW,252,14.0,22.0,95,0.04,,,1.61,1.000000,,2012-01-21 12:44:00,
2012-01-21 12:53:00,34.0,33.0,-100.00,WSW,252,14.0,22.0,95,0.04,,,1.61,1.000000,,2012-01-21 12:53:00,
2012-01-21 13:24:00,33.0,32.0,-100.00,SW,229,7.0,16.0,98,0.01,,,1.62,1.000000,,2012-01-21 13:24:00,
2012-01-21 13:35:00,33.0,32.0,-100.00,SW,229,7.0,16.0,98,0.01,,,1.62,1.000000,,2012-01-21 13:35:00,
2012-01-21 13:44:00,33.0,32.0,-100.00,SW,229,7.0,16.0,98,0.01,,,1.62,1.000000,,2012-01-21 13:44:00,
2012-01-21 13:53:00,33.0,32.0,-100.00,SW,229,7.0,16.0,98,0.01,,,1.62,1.000000,,2012-01-21 13:53:00,
2012-01-21 14:24:00,32.0,30.0,-100.00,SW,232,12.0,22.0,92,0.00,,,1.62,1.000000,,2012-01-21 14:24:00,
2012-01-21 14:35:00,32.0,30.0,-100.00,SW,232,12.0,22.0,92,0.00,,,1.62,1.000000,,2012-01-21 14:35:00,
2012-01-21 14:44:00,32.0,30.0,-100.00,SW,232,12.0,22.0,92,0.00,,,1.62,1.000000,,2012-01-21 14:44:00,
2012-01-21 14:53:00,32.0,30.0,-100.00,SW,232,12.0,22.0,92,0.00,,,1.62,1.000000,,2012-01-21 14:53:00,
2012-01-21 15:24:00,31.0,28.0,-100.00,WSW,238,10.0,22.0,89,0.00,,,-99.99,1.000000,,2012-01-21 15:24:00,
2012-01-21 15:35:00,31.0,28.0,-100.00,WSW,238,10.0,22.0,89,0.00,,,-99.99,1.000000,,2012-01-21 15:35:00,
2012-01-21 15:44:00,31.0,28.0,-100.00,WSW,238,10.0,22.0,89,0.00,,,-99.99,1.000000,,2012-01-21 15:44:00,
2012-01-21 15:53:00,31.0,28.0,-100.00,WSW,238,10.0,22.0,89,0.00,,,-99.99,1.000000,,2012-01-21 15:53:00,
2012-01-21 16:24:00,31.0,27.0,-100.00,WSW,254,10.0,15.0,85,0.00,,,1.61,8.000000,,2012-01-21 16:24:00,
2012-01-21 16:34:00,31.0,27.0,-100.00,WSW,254,10.0,15.0,85,0.00,,,1.61,8.000000,,2012-01-21 16:34:00,
2012-01-21 16:44:00,31.0,27.0,-100.00,WSW,254,10.0,15.0,85,0.00,,,1.61,8.000000,,2012-01-21 16:44:00,
2012-01-21 16:53:00,31.0,27.0,-100.00,WSW,254,10.0,15.0,85,0.00,,,1.61,8.000000,,2012-01-21 16:53:00,
2012-01-21 17:23:00,32.0,28.0,-100.00,WSW,245,10.0,19.0,84,0.00,,,1.60,77.000000,,2012-01-21 17:23:00,
2012-01-21 17:34:00,32.0,28.0,-100.00,WSW,245,10.0,19.0,84,0.00,,,1.60,77.000000,,2012-01-21 17:34:00,
2012-01-21 17:44:00,32.0,28.0,-100.00,WSW,245,10.0,19.0,84,0.00,,,1.60,77.000000,,2012-01-21 17:44:00,
2012-01-21 17:53:00,32.0,28.0,-100.00,WSW,245,10.0,19.0,84,0.00,,,1.60,77.000000,,2012-01-21 17:53:00,
2012-01-21 18:23:00,32.0,27.0,-100.00,SW,235,12.0,23.0,83,0.01,,,1.57,176.000000,,2012-01-21 18:23:00,
2012-01-21 18:34:00,32.0,27.0,-100.00,SW,235,12.0,23.0,83,0.01,,,1.57,176.000000,,2012-01-21 18:34:00,
2012-01-21 18:44:00,32.0,27.0,-100.00,SW,235,12.0,23.0,83,0.01,,,1.57,176.000000,,2012-01-21 18:44:00,
2012-01-21 18:53:00,32.0,27.0,-100.00,SW,235,12.0,23.0,83,0.01,,,1.57,176.000000,,2012-01-21 18:53:00,
2012-01-21 19:23:00,33.0,26.0,-100.00,WSW,242,15.0,23.0,76,0.02,,,1.55,249.000000,,2012-01-21 19:23:00,
2012-01-21 19:34:00,33.0,26.0,-100.00,WSW,242,15.0,23.0,76,0.02,,,1.55,249.000000,,2012-01-21 19:34:00,
2012-01-21 19:44:00,33.0,26.0,-100.00,WSW,242,15.0,23.0,76,0.02,,,1.55,249.000000,,2012-01-21 19:44:00,
2012-01-21 19:53:00,33.0,26.0,-100.00,WSW,242,15.0,23.0,76,0.02,,,1.55,249.000000,,2012-01-21 19:53:00,
2012-01-21 20:23:00,34.0,28.0,-100.00,SW,236,12.0,25.0,80,0.04,,,1.51,341.000000,,2012-01-21 20:23:00,
2012-01-21 20:34:00,34.0,28.0,-100.00,SW,236,12.0,25.0,80,0.04,,,1.51,341.000000,,2012-01-21 20:34:00,
2012-01-21 20:43:00,34.0,28.0,-100.00,SW,236,12.0,25.0,80,0.04,,,1.51,341.000000,,2012-01-21 20:43:00,
2012-01-21 20:53:00,34.0,28.0,-100.00,SW,236,12.0,25.0,80,0.04,,,1.51,341.000000,,2012-01-21 20:53:00,
2012-01-21 21:23:00,32.0,28.0,-100.00,SSW,213,8.0,19.0,84,0.04,,,1.38,295.000000,,2012-01-21 21:23:00,
2012-01-21 21:34:00,32.0,28.0,-100.00,SSW,213,8.0,19.0,84,0.04,,,1.38,295.000000,,2012-01-21 21:34:00,
2012-01-21 21:44:00,32.0,28.0,-100.00,SSW,213,8.0,19.0,84,0.04,,,1.38,295.000000,,2012-01-21 21:44:00,
2012-01-21 21:53:00,32.0,28.0,-100.00,SSW,213,8.0,19.0,84,0.04,,,1.38,295.000000,,2012-01-21 21:53:00,
2012-01-21 22:23:00,35.0,26.0,-100.00,WSW,250,19.0,31.0,68,0.00,,,1.24,404.000000,,2012-01-21 22:23:00,
2012-01-21 22:34:00,35.0,26.0,-100.00,WSW,250,19.0,31.0,68,0.00,,,1.24,404.000000,,2012-01-21 22:34:00,
2012-01-21 22:44:00,35.0,26.0,-100.00,WSW,250,19.0,31.0,68,0.00,,,1.24,404.000000,,2012-01-21 22:44:00,
2012-01-21 22:53:00,35.0,26.0,-100.00,WSW,250,19.0,31.0,68,0.00,,,1.24,404.000000,,2012-01-21 22:53:00,
2012-01-21 23:23:00,30.0,28.0,-100.00,SW,228,10.0,32.0,92,0.00,,,1.13,263.000000,,2012-01-21 23:23:00,
2012-01-21 23:34:00,30.0,28.0,-100.00,SW,228,10.0,32.0,92,0.00,,,1.13,263.000000,,2012-01-21 23:34:00,
2012-01-21 23:44:00,30.0,28.0,-100.00,SW,228,10.0,32.0,92,0.00,,,1.13,263.000000,,2012-01-21 23:44:00,
2012-01-21 23:53:00,30.0,28.0,-100.00,SW,228,10.0,32.0,92,0.00,,,1.13,263.000000,,2012-01-21 23:53:00,